Weather History for KSPB - April, 2014

Change the Weather History Date:

Saturday, April 26, 2014

  Actual Average Record
Temperature  
Mean Temperature 46 °F -  
Max Temperature 57 °F - 84 °F (2004)
Min Temperature 35 °F - 35 °F (1999)
Degree Days  
Heating Degree Days 19    
Month to date heating degree days 367  
Since 1 July heating degree days 4529  
Cooling Degree Days 0    
Month to date cooling degree days 0  
Year to date cooling degree days 0  
Moisture  
Dew Point 40 °F    
Average Humidity 77    
Maximum Humidity 100    
Minimum Humidity 54    
Precipitation  
Precipitation 0.16 in - 0.24 in (2011)
Month to date precipitation 3.30  
Year to date precipitation 20.95  
Sea Level Pressure  
Sea Level Pressure 29.81 in    
Wind  
Wind Speed 6 mph (South)    
Max Wind Speed 16 mph    
Max Gust Speed 21 mph    
Visibility 10 miles    
Events Rain    
T = Trace of Precipitation, MM = Missing Value Source: NWS Daily Summary

Daily Weather History Graph

Daily Weather History Graph

Search for Another Location

Airport or City:

Trip Planner

Search our weather history database for the weather conditions in past years. The results will help you decide how hot, cold, wet, or windy it might be!

Date:

Astronomy

Apr. 26, 2014 Rise Set
Actual Time 6:06 AM PDT 8:12 PM PDT
Civil Twilight 5:34 AM PDT 8:45 PM PDT
Nautical Twilight 4:54 AM PDT 9:25 PM PDT
Astronomical Twilight 4:10 AM PDT 10:09 PM PDT
Moon 4:43 AM PDT (4/26) 5:39 PM PDT (4/26)
Length of Visible Light 15h 10m
Length of Day
14h 06m
Waning Crescent, 7% of the Moon is Illuminated
Apr 26
Waning Crescent
Apr 28
New
May 6
First Quarter
May 14
Full
May 21
Last Quarter

Hourly Weather History & Observations

Time (PDT) Temp. Windchill Dew Point Humidity Pressure Visibility Wind Dir Wind Speed Gust Speed Precip Events Conditions
12:53 AM 37.9 °F 34.4 °F 36.0 °F 93% 29.88 in 10.0 mi West 4.6 mph - N/A   Clear
1:53 AM 37.0 °F 34.5 °F 36.0 °F 96% 29.88 in 10.0 mi West 3.5 mph - N/A   Clear
2:53 AM 36.0 °F 33.3 °F 35.1 °F 97% 29.89 in 10.0 mi West 3.5 mph - N/A   Clear
3:53 AM 37.9 °F - 36.0 °F 93% 29.89 in 10.0 mi Calm Calm - N/A   Overcast
4:53 AM 36.0 °F - 36.0 °F 100% 29.89 in 10.0 mi Calm Calm - N/A   Overcast
5:53 AM 37.0 °F 34.5 °F 36.0 °F 96% 29.89 in 10.0 mi West 3.5 mph - N/A   Overcast
6:32 AM 37.9 °F - 36.0 °F 93% 29.89 in 10.0 mi Calm Calm - N/A   Overcast
6:53 AM 39.0 °F - 37.0 °F 93% 29.89 in 10.0 mi Calm Calm - N/A   Mostly Cloudy
7:53 AM 42.1 °F - 39.0 °F 89% 29.89 in 10.0 mi Calm Calm - N/A   Partly Cloudy
8:53 AM 46.0 °F 44.8 °F 41.0 °F 83% 29.87 in 10.0 mi South 3.5 mph - N/A   Overcast
9:53 AM 48.9 °F - 42.1 °F 77% 29.86 in 10.0 mi SE 10.4 mph - N/A   Clear
10:53 AM 50.0 °F - 39.0 °F 66% 29.86 in 10.0 mi SSE 10.4 mph - N/A   Overcast
11:53 AM 52.0 °F - 39.0 °F 61% 29.85 in 10.0 mi SSE 9.2 mph - N/A   Mostly Cloudy
12:53 PM 53.1 °F - 37.0 °F 55% 29.82 in 10.0 mi SSE 10.4 mph - N/A   Mostly Cloudy
1:53 PM 55.0 °F - 39.0 °F 55% 29.81 in 10.0 mi SSE 8.1 mph - N/A   Mostly Cloudy
2:53 PM 54.0 °F - 37.9 °F 55% 29.80 in 10.0 mi SSW 12.7 mph 18.4 mph N/A   Overcast
3:53 PM 57.0 °F - 41.0 °F 55% 29.78 in 10.0 mi SSW 9.2 mph - 0.00 in Rain Light Rain
4:53 PM 53.1 °F - 43.0 °F 69% 29.77 in 10.0 mi SSE 6.9 mph - 0.00 in   Mostly Cloudy
5:53 PM 52.0 °F - 42.1 °F 69% 29.75 in 10.0 mi South 6.9 mph - 0.00 in Rain Light Rain
6:53 PM 48.9 °F - 44.1 °F 83% 29.75 in 10.0 mi Variable 3.5 mph - 0.02 in Rain Light Rain
7:53 PM 48.0 °F - 43.0 °F 83% 29.72 in 10.0 mi SSE 8.1 mph - 0.00 in   Overcast
8:53 PM 48.0 °F - 44.1 °F 86% 29.72 in 10.0 mi SSE 11.5 mph - 0.02 in Rain Light Rain
9:07 PM 48.0 °F - 44.1 °F 86% 29.72 in 10.0 mi SSE 12.7 mph - 0.00 in Rain Light Rain
9:53 PM 48.0 °F - 44.1 °F 86% 29.73 in 8.0 mi SSE 5.8 mph - 0.02 in Rain Light Rain
10:53 PM 46.9 °F - 44.1 °F 90% 29.72 in 6.0 mi South 6.9 mph 17.3 mph 0.05 in Rain Light Rain
11:39 PM 46.9 °F - 43.0 °F 86% 29.72 in 10.0 mi South 5.8 mph - 0.03 in   Overcast
11:53 PM 46.9 °F - 43.0 °F 86% 29.72 in 10.0 mi South 8.1 mph - 0.04 in Rain Light Rain